TimeEDT,TemperatureF,Dew PointF,Humidity,Sea Level PressureIn,VisibilityMPH,Wind Direction,Wind SpeedMPH,Gust SpeedMPH,PrecipitationIn,Events,Conditions,WindDirDegrees,DateUTC
12:54 AM,68.0,53.1,59,30.19,10.0,SSW,5.8,-,N/A,,Clear,200,2013-08-26 04:54:00
1:54 AM,68.0,54.0,61,30.17,10.0,SSW,4.6,-,N/A,,Scattered Clouds,200,2013-08-26 05:54:00
2:54 AM,69.1,54.0,58,30.17,10.0,SW,6.9,-,N/A,,Clear,220,2013-08-26 06:54:00
3:54 AM,69.1,54.0,58,30.15,10.0,WSW,5.8,-,N/A,,Partly Cloudy,240,2013-08-26 07:54:00
4:54 AM,68.0,54.0,61,30.12,10.0,South,6.9,-,N/A,,Overcast,180,2013-08-26 08:54:00
5:54 AM,66.9,55.9,68,30.12,10.0,SSW,6.9,-,0.00,Rain,Light Rain,210,2013-08-26 09:54:00
6:54 AM,66.9,57.0,70,30.11,10.0,SW,5.8,-,0.00,,Overcast,220,2013-08-26 10:54:00
7:54 AM,66.0,57.9,75,30.09,10.0,SSW,5.8,-,0.00,,Overcast,200,2013-08-26 11:54:00
8:54 AM,66.9,57.9,73,30.08,10.0,SSW,9.2,-,0.00,,Overcast,210,2013-08-26 12:54:00
9:54 AM,69.1,57.9,68,30.05,10.0,SSW,8.1,-,N/A,,Overcast,210,2013-08-26 13:54:00
10:54 AM,75.0,59.0,57,30.04,10.0,WSW,13.8,18.4,N/A,,Partly Cloudy,240,2013-08-26 14:54:00
1:54 PM,80.1,63.0,56,29.96,10.0,West,8.1,-,N/A,,Overcast,260,2013-08-26 17:54:00
2:54 PM,81.0,63.0,54,29.94,10.0,WSW,13.8,-,N/A,,Scattered Clouds,240,2013-08-26 18:54:00
3:54 PM,79.0,63.0,58,29.93,10.0,WSW,11.5,-,N/A,,Mostly Cloudy,250,2013-08-26 19:54:00
4:54 PM,78.1,63.0,60,29.92,10.0,West,8.1,-,N/A,,Overcast,270,2013-08-26 20:54:00
5:54 PM,78.1,64.0,62,29.91,10.0,SSW,8.1,-,N/A,,Overcast,210,2013-08-26 21:54:00
6:54 PM,78.1,64.0,62,29.91,10.0,WSW,9.2,-,N/A,,Scattered Clouds,240,2013-08-26 22:54:00
7:54 PM,77.0,64.0,64,29.91,10.0,SSW,5.8,-,N/A,,Mostly Cloudy,210,2013-08-26 23:54:00
8:54 PM,75.0,64.0,69,29.91,10.0,SW,6.9,-,N/A,,Partly Cloudy,230,2013-08-27 00:54:00
9:54 PM,75.0,64.9,71,29.91,10.0,SSW,4.6,-,N/A,,Overcast,210,2013-08-27 01:54:00
10:54 PM,73.9,64.0,71,29.90,10.0,SSW,4.6,-,N/A,,Clear,210,2013-08-27 02:54:00
11:54 PM,73.0,64.0,73,29.88,10.0,SSW,5.8,-,N/A,,Clear,210,2013-08-27 03:54:00